STARLINK-11604, 63133

Orbit data source: Space-Track

STARLINK-11604, 63133 is a payload satellite owned by SpaceX/Seattle (US) in LEO that was launched on Mon, 03 Mar 2025 UTC via an FALCON 9 launch vehicle from the Air Force Eastern Test Range (AFETR). Payload-class satellites include a variety of spacecraft equipped with specific instruments for various scientific and technological missions. These include communications satellites like Starlink; space stations such as the ISS; scientific satellites like the Hubble; Earth observation satellites from companies like Planet Labs, Umbra, and HawkEye 360; GPS; miniature CubeSats for education and research; and military/defense satellites.

Loading next visibility...
Identifier
63133, 2025-043B
Orbit
LEO
Last TLE update
11 hours ago
Origin
Manufacturer
SpaceX/Seattle
Mission
Operational Commercial Communications
Bus & Motor
STARLINK V2M, Unknown motor
Mass
730 kg wet, ~700 kg dry
Launch date (UTC)
2025-03-03 (4 months ago)
Launch vehicle
FALCON 9
Launch site
Air Force Eastern Test Range (AFETR)
Object type
Payload
Rocket body
Debris
Shape & HBR
Box + 2 Pan, 29 m
Radar Cross Section
36.964 m², Large (>1 m²)

Expand to show TLE details & history

TLE from 11 hours ago
0 STARLINK-11604
1 63133U 25043B   25182.12971859  .00166890  00000-0  12759-2 0  9996
2 63133  42.9991 327.4583 0001641 297.7104  62.3597 15.70882127 19784
Epoch: 2025-07-01T03:06Z
TLE epoch observation values (Epoch: 2025-07-01T03:06:47.686Z)
Latitude
-0.00001°
Longitude
1.33°
Altitude
355.633 km
Speed
7.698 km/s
True Right ascension
21h 49m 49s
True Declination
0° 00' 00"
Sunlit
Object was in full shadow at epoch
Visualization orbit readout
Latitude
21.90858°
Longitude
24.00614°
Altitude
355.505 km
Speed
7.7 km/s
Apparent Right ascension
19h 55m 13s
Apparent Declination
-24° 21' 22"
Sunlit
Object is in daylight
Visualization observer readout
Local Sidereal Time
01:35:03
Azimuth
247.945° W
Elevation
-11.728°
Doppler factor
1
Orbital elements
Apogee altitude
359.462 km
Perigee altitude
357.251 km
Semi-major axis
6,736.493 km
Eccentricity
0.00016
Inclination
42.9991°
RAAN
327.4583°
Arg. of periapsis
297.7104°
True anomaly
Unknown
Mean anomaly
62.3597°
Eccentric anomaly
Unknown
Mean motion
3.92548 °/min
Orbital period
91.71 mins
BSTAR
0.0012759
Loading maneuver chart data...
Loading SW <> Apogee altitude chart data...
Loading historical data...
Loading historical data...
Loading historical data...
Loading historical data...
Loading historical data...
Loading historical data...
Loading historical data...

STARLINK-11604 Visibility forecast

Observer location: undefined°, undefined°

Span
Click to sort rows by Start time (UTC) header in descending order
Start Az.
Max El. time (UTC)
Max El. Az.
Max El.
End time (UTC)
End Az.
4 mins2025-07-01 14:03:02.574Z245.575° WSW2025-07-01 14:05:02.574Z157.202° SSE44.564°2025-07-01 14:07:02.574Z74.26° E
4 mins2025-07-01 15:40:02.574Z300.718° NW2025-07-01 15:41:02.574Z342.07° N34.15°2025-07-01 15:44:02.574Z71.231° E
4 mins2025-07-01 17:16:02.574Z296.69° NW2025-07-01 17:18:02.574Z68.997° E38.887°2025-07-01 17:20:02.574Z97.131° ESE
|